Location: North Evanston
(42.0634°N, 87.6976°W)
Time: 13:57:04
(UTC+00:00)

Injun/Solrad 3 - Pass Details

Date: 17 May 2026
Orbit: 867 x 989 km, 66.8° (Epoch: 7 June)

Event Time Altitude Azimuth Distance (km) Brightness Sun altitude
Rises 22:50:23 0° 264° (W) 3,550 12.3 23.3°
Reaches altitude 10° 22:53:53 10° 285° (WNW) 2,637 12.3 22.7°
Maximum altitude 22:57:45 17° 324° (NW) 2,200 10.7 21.9°
Drops below altitude 10° 23:01:43 10° 4° (N) 2,696 10.4 21.2°
Sets 23:05:22 0° 24° (NNE) 3,667 10.9 20.5°
